Regional Weather Roundup
Issued by NWS

Home | Current Version | Previous Version | Graphics & Text | Print | Product List | Glossary Off
Versions: 1 2 3 4 5 6 7 8 9 10 11 12 13 14 15 16 17 18 19 20 21 22 23 24 25 26 27 28 29 30 31 32 33 34 35 36 37 38 39 40 41 42 43 44 45 46 47 48 49 50

000
ASUS43 KMKX 270000
RWRWI

WISCONSIN REGIONAL WEATHER ROUNDUP
NATIONAL WEATHER SERVICE MILWAUKEE/SULLIVAN WI
700 PM CDT WED APR 26 2017

NOTE: "FAIR" INDICATES FEW OR NO CLOUDS BELOW 12,000 FEET WITH NO
SIGNIFICANT WEATHER AND/OR OBSTRUCTIONS TO VISIBILITY.

WIZ001-002-006>008-014>016-023>028-270100-
NORTHWEST WISCONSIN

CITY           SKY/WX    TMP DP  RH WIND       PRES   REMARKS
SUPERIOR ARPT  CLOUDY    33  31  92 N7        29.59R WCI  27
ASHLAND        LGT SNOW  32  31  96 NE13      29.59R VSB 3/4 WCI  22
6HR MIN TEMP:  32; 6HR MAX TEMP:  34; 6HR PCP:  0.07;

HAYWARD        LGT SNOW  34  30  85 NE12      29.55S FOG     WCI  25
6HR MIN TEMP:  34; 6HR MAX TEMP:  35; 6HR PCP:  0.01;

SIREN          MIX PCPN  35  32  87 NE9       29.58R WCI  28
CUMBERLAND     CLOUDY    34  32  93 N7        29.54S WCI  28
RICE LAKE      DRIZZLE   36  35  93 N8        29.56R WCI  30
6HR MIN TEMP:  35; 6HR MAX TEMP:  38;

CHETEK         CLOUDY    37  35  94 N7        29.53S FOG     WCI  31
LADYSMITH      CLOUDY    37  34  90 N10       29.54R WCI  29
EAU CLAIRE     NOT AVBL
MENOMONIE      CLOUDY    39  37  91 NW9       29.53R FOG     WCI  33
NEW RICHMOND   CLOUDY    38  33  84 N10       29.55S WCI  30
OSCEOLA        CLOUDY    38  33  82 N6        29.60R WCI  33
$$

WIZ003>005-009-010-017-018-270100-
NORTH CENTRAL WISCONSIN

CITY           SKY/WX    TMP DP  RH WIND       PRES   REMARKS
MANITOWISH WTR CLOUDY    32  32 100 NE3       29.48R FOG
ARBOR VITAE    CLOUDY    37  35  95 N7        29.46R FOG     WCI  31
WOODRUFF       CLOUDY    37  35  95 N7        29.46R FOG     WCI  31
RHINELANDER    CLOUDY    40  40 100 NW3       29.45S FOG
6HR MIN TEMP:  40; 6HR MAX TEMP:  45; 6HR PCP:  0.09;

EAGLE RIVER    LGT SNOW  37  37 100 N8        29.44R WCI  30
LAND O LAKES   CLOUDY    36  35  98 NW5       29.47R FOG     WCI  32
PHILLIPS       CLOUDY    35  34  98 NW6       29.49R WCI  30
6HR MIN TEMP:  34; 6HR MAX TEMP:  37; 6HR PCP:  0.01;

TOMAHAWK       CLOUDY    38  37  95 NW8       29.46R FOG     WCI  32
MEDFORD        CLOUDY    40  39  97 W9        29.46R FOG     WCI  33
MERRILL        CLOUDY    43  43 100 N5        29.45R FOG
$$

WIZ029-030-035-036-043>047-270100-
CENTRAL WISCONSIN

CITY           SKY/WX    TMP DP  RH WIND       PRES   REMARKS
WAUSAU         CLOUDY    46  44  93 W13       29.44R
6HR MIN TEMP:  46; 6HR MAX TEMP:  60; 6HR PCP: TRACE;

MOSINEE        CLOUDY    45  45 100 W12       29.47R
MARSHFIELD     CLOUDY    42  39  89 W12       29.47R
6HR MIN TEMP:  42; 6HR MAX TEMP:  59; 6HR PCP: TRACE;

STEVENS POINT  CLOUDY    46  44  91 W10       29.47R
WAUPACA        CLOUDY    56  51  82 SW8       29.44R
WAUTOMA        LGT RAIN  49  48  97 W12       29.46R
6HR MIN TEMP:  49; 6HR MAX TEMP:  66;

WISC RAPIDS    CLOUDY    46  44  93 NW10      29.48S
6HR MIN TEMP:  46; 6HR MAX TEMP:  62;

CAMP DOUGLAS   NOT AVBL
$$

WIZ011>013-019>022-031-037>040-048>050-270100-
NORTHEAST WISCONSIN

CITY           SKY/WX    TMP DP  RH WIND       PRES   REMARKS
ANTIGO         CLOUDY    49  49 100 W10       29.43R FOG
SHAWANO        CLOUDY    64  58  81 SW8       29.40F
6HR MIN TEMP:  59; 6HR MAX TEMP:  65; 6HR PCP:  0.04;

OCONTO         MOCLDY    66  58  73 SW10      29.40S
STURGEON BAY   CLOUDY    60  55  83 S6        29.41F
6HR MIN TEMP:  52; 6HR MAX TEMP:  68; 6HR PCP:  0.10;

GREEN BAY      MOCLDY    66  59  78 S9        29.40F
6HR MIN TEMP:  60; 6HR MAX TEMP:  67; 6HR PCP:  0.04;

MANITOWOC      NOT AVBL
APPLETON       MOCLDY    63  52  67 SW14      29.40F
CLINTONVILLE   CLOUDY    59  54  82 SW9       29.41S
OSHKOSH        CLOUDY    63  54  72 SW9       29.41F
6HR MIN TEMP:  63; 6HR MAX TEMP:  67;

$$

WIZ032>034-041-042-053>061-270100-
SOUTHWEST WISCONSIN

CITY           SKY/WX    TMP DP  RH WIND       PRES   REMARKS
LA CROSSE      CLOUDY    45  40  82 W13       29.52R
6HR MIN TEMP:  45; 6HR MAX TEMP:  49;

SPARTA         CLOUDY    44  41  91 W8        29.51R
VIROQUA        CLOUDY    44  42  94 W8        29.50F
6HR MIN TEMP:  43; 6HR MAX TEMP:  56;

BOSCOBEL       CLOUDY    49  44  83 W8        29.52R
6HR MIN TEMP:  49; 6HR MAX TEMP:  58;

PRAIRIE DU CHI CLOUDY    47  41  79 W10       29.53R
PLATTEVILLE    CLOUDY    49  49 100 SW9       29.51R
$$

WIZ056-057-062-063-064-067-068-270100-
SOUTH CENTRAL WISCONSIN

CITY           SKY/WX    TMP DP  RH WIND       PRES   REMARKS
REEDSBURG      CLOUDY    50  50 100 W10       29.47S FOG
BARABOO/DELLS  CLOUDY    53  51  92 W8        29.45F FOG
LONE ROCK      CLOUDY    50  48  93 W10       29.49R FOG
MINERAL POINT  CLOUDY    50  50 100 W9        29.49R FOG
MADISON        CLOUDY    54  50  86 SW9       29.47R
6HR MIN TEMP:  54; 6HR MAX TEMP:  64; 6HR PCP: TRACE;

MIDDLETON      CLOUDY    55  51  87 SW8       29.48R
WATERTOWN      CLOUDY    58  56  92 SW10      29.45F
MONROE         LGT RAIN  52  50  93 SW13      29.49R
JANESVILLE     CLOUDY    57  55  94 SW8       29.48R
$$

WIZ051-052-058>065-066-070>072-270100-
SOUTHEAST WISCONSIN

CITY           SKY/WX    TMP DP  RH WIND       PRES   REMARKS
MILWAUKEE      CLOUDY    67  54  63 SW15      29.45F
6HR MIN TEMP:  66; 6HR MAX TEMP:  74;

WAUKESHA       CLOUDY    61  54  77 SW10      29.47S
MILWAUKEE/TIMM CLOUDY    64  52  63 SW9G18    29.45F
RACINE         CLOUDY    67  55  65 SW8       29.47F
6HR MIN TEMP:  67; 6HR MAX TEMP:  74; 6HR PCP: TRACE;

KENOSHA        CLOUDY    66  56  70 SW13      29.46F
6HR MIN TEMP:  65; 6HR MAX TEMP:  74; 6HR PCP: TRACE;

FOND DU LAC    CLOUDY    63  53  70 SW9       29.42S
6HR MIN TEMP:  63; 6HR MAX TEMP:  68; 6HR PCP: TRACE;

SHEBOYGAN      LGT RAIN  65  59  81 SW13      29.43S
6HR MIN TEMP:  56; 6HR MAX TEMP:  69; 6HR PCP: TRACE;

WEST BEND      CLOUDY    63  55  77 SW13G18   29.43F
JUNEAU         CLOUDY    59  55  84 S9        29.45F
$$

LSZ147-162-270100-
LAKE SUPERIOR

STATION/POSITION TIME  TEMP    WIND        PRES    WAVE
                       AIR SEA DIR/SP/G            HT/PER
                 (UTC) (F)     (DEG/KT/KT) (MB)    (FT/S)
DEVILS ISLAND    2300   32      20/ 21/ 26 1001.9F
PORT WING        2320   33      10/ 18     1002.4R
SAXON HARBOR     2340   33      30/ 18/ 24 1001.0R
$$

LMZ867-665-643>646-270100-
LAKE MICHIGAN

STATION/POSITION TIME  TEMP    WIND        PRES    WAVE
                       AIR SEA DIR/SP/G            HT/PER
                 (UTC) (F)     (DEG/KT/KT) (MB)    (FT/S)
CHAMBERS ISLAND  2340   62     190/  6/ 13  995.6S
N MID LAKE BUOY  2250   41 37  180/ 14/ 16  997.6R   1/ 4
NORTHPORT PIER   2340   54     170/  3/  9  996.3S
KEWAUNEE LAKESHO 2330   49     170/ 10/ 11  996.3F
SHEBOYGAN LAKESH 2200   56     180/ 16/ 17  996.5R
PORT WASHINGTON  2330   67     200/  6/ 11  998.0S
MILWAUKEE LAKESH 2330   67     230/ 12/ 14   N/A
S MID LAKE BUOY  2250   49 42  160/  8/  8  998.8R   1/ 3
KENOSHA   LAKESH 2300   69     230/  9/ 15  998.3
$$

TC  - TEMPERATURE IN CELSIUS
VSB - VISIBILITY IN STATUTE MILES
WCI - WIND CHILL INDEX
HX  - HEAT INDEX





USA.gov is the U.S. government's official web portal to all federal, state and local government web resources and services.